Mora, MN

1:48 AM CDT on June 28, 2017 (GMT -0500)
Mora Municipal

Weather History for KJMR - August, 2013

Change the Weather History Date:

Friday, August 23, 2013

  Actual Average Record
Temperature  
Mean Temperature 65 °F -  
Max Temperature 86 °F 76 °F 95 °F (1947)
Min Temperature 44 °F 50 °F 27 °F (1987)
Growing Degree Days 15 (Base 50)    
Moisture  
Dew Point 51 °F    
Average Humidity 64    
Maximum Humidity 100    
Minimum Humidity 32    
Precipitation  
Precipitation 0.00 in - - ()
Sea Level Pressure  
Sea Level Pressure 30.13 in    
Wind  
Wind Speed 2 mph (SSE)    
Max Wind Speed 10 mph    
Max Gust Speed -    
Visibility 10 miles    
Events      
Averages and records for this station are not official NWS values.
T = Trace of Precipitation, MM = Missing Value Source: NWS Daily Summary

Daily Weather History Graph

Daily Weather History Graph

Search for Another Location

Airport or City:

Trip Planner

Search our weather history database for the weather conditions in past years. The results will help you decide how hot, cold, wet, or windy it might be!

Date:

Astronomy

Aug. 23, 2013 Rise Set
Actual Time 6:23 AM CDT 8:07 PM CDT
Civil Twilight 5:51 AM CDT 8:38 PM CDT
Nautical Twilight 5:12 AM CDT 9:17 PM CDT
Astronomical Twilight 4:30 AM CDT 9:58 PM CDT
Moon 9:12 PM CDT (8/23) 9:31 AM CDT (8/23)
Length of Visible Light 14h 47m
Length of Day
13h 44m
Waning Gibbous, 91% of the Moon is Illuminated
Aug 23
Waning Gibbous
Aug 28
Last Quarter
Sep 5
New
Sep 12
First Quarter
Sep 19
Full

Hourly Weather History & Observations

Time (CDT) Temp. Heat Index Dew Point Humidity Pressure Visibility Wind Dir Wind Speed Gust Speed Precip Events Conditions
12:14 AM 50.0 °F - 48.2 °F 94% 30.17 in 10.0 mi Calm Calm - N/A   Clear
12:34 AM 51.8 °F - 50.0 °F 94% 30.17 in 10.0 mi Calm Calm - N/A   Clear
12:54 AM 50.0 °F - 46.4 °F 87% 30.18 in 10.0 mi Calm Calm - N/A   Clear
1:14 AM 50.0 °F - 48.2 °F 94% 30.17 in 10.0 mi Calm Calm - N/A   Clear
1:35 AM 50.0 °F - 48.2 °F 94% 30.17 in 10.0 mi Calm Calm - N/A   Clear
1:54 AM 50.0 °F - 48.2 °F 94% 30.17 in 10.0 mi Calm Calm - N/A   Clear
2:15 AM 50.0 °F - 48.2 °F 94% 30.17 in 10.0 mi Calm Calm - N/A   Clear
2:34 AM 48.2 °F - 44.6 °F 87% 30.16 in 10.0 mi Calm Calm - N/A   Clear
2:55 AM 46.4 °F - 44.6 °F 93% 30.17 in 10.0 mi Calm Calm - N/A   Clear
3:14 AM 46.4 °F - 44.6 °F 93% 30.17 in 7.0 mi Calm Calm - N/A   Clear
3:35 AM 46.4 °F - 44.6 °F 93% 30.17 in 10.0 mi Calm Calm - N/A   Clear
3:55 AM 48.2 °F - 46.4 °F 93% 30.17 in 10.0 mi Calm Calm - N/A   Clear
4:14 AM 46.4 °F - 44.6 °F 93% 30.17 in 7.0 mi Calm Calm - N/A   Clear
4:35 AM 44.6 °F - 44.6 °F 100% 30.17 in 10.0 mi Calm Calm - N/A   Clear
4:54 AM 44.6 °F - 44.6 °F 100% 30.17 in 10.0 mi Calm Calm - N/A   Clear
5:15 AM 44.6 °F - 44.6 °F 100% 30.17 in 10.0 mi Calm Calm - N/A   Clear
5:34 AM 44.6 °F - 44.6 °F 100% 30.18 in 3.0 mi Calm Calm - N/A   Clear
5:54 AM 44.6 °F - 44.6 °F 100% 30.18 in 10.0 mi Calm Calm - N/A   Clear
6:15 AM 44.6 °F - 44.6 °F 100% 30.18 in 5.0 mi Calm Calm - N/A   Clear
6:34 AM 44.6 °F - 44.6 °F 100% 30.18 in 7.0 mi Calm Calm - N/A   Clear
6:55 AM 44.6 °F - 44.6 °F 100% 30.19 in 10.0 mi Calm Calm - N/A   Clear
7:14 AM 46.4 °F - 44.6 °F 93% 30.19 in 10.0 mi Calm Calm - N/A   Clear
7:34 AM 50.0 °F - 50.0 °F 100% 30.19 in 10.0 mi Calm Calm - N/A   Clear
7:54 AM 50.0 °F - 50.0 °F 100% 30.19 in 10.0 mi Calm Calm - N/A   Clear
8:15 AM 53.6 °F - 51.8 °F 94% 30.18 in 10.0 mi Calm Calm - N/A   Clear
8:34 AM 59.0 °F - 50.0 °F 72% 30.18 in 10.0 mi Calm Calm - N/A   Clear
8:55 AM 64.4 °F - 51.8 °F 64% 30.18 in 10.0 mi Calm Calm - N/A   Clear
9:14 AM 64.4 °F - 50.0 °F 59% 30.18 in 10.0 mi Calm Calm - N/A   Clear
9:35 AM 68.0 °F - 50.0 °F 52% 30.18 in 10.0 mi Calm Calm - N/A   Clear
9:54 AM 69.8 °F - 50.0 °F 49% 30.18 in 10.0 mi SE 3.5 mph - N/A   Clear
10:14 AM 73.4 °F - 48.2 °F 41% 30.18 in 10.0 mi South 4.6 mph - N/A   Clear
10:35 AM 73.4 °F - 46.4 °F 38% 30.17 in 10.0 mi ESE 6.9 mph - N/A   Clear
10:54 AM 75.2 °F - 46.4 °F 36% 30.17 in 10.0 mi SE 6.9 mph - N/A   Clear
11:15 AM 77.0 °F - 46.4 °F 34% 30.17 in 10.0 mi SE 5.8 mph - N/A   Clear
11:34 AM 77.0 °F - 44.6 °F 32% 30.16 in 10.0 mi SE 6.9 mph - N/A   Clear
11:54 AM 78.8 °F - 46.4 °F 32% 30.16 in 10.0 mi SE 8.1 mph - N/A   Clear
12:14 PM 78.8 °F - 46.4 °F 32% 30.15 in 10.0 mi SSE 4.6 mph - N/A   Clear
12:34 PM 78.8 °F - 46.4 °F 32% 30.15 in 10.0 mi SE 5.8 mph - N/A   Clear
12:55 PM 78.8 °F - 46.4 °F 32% 30.14 in 10.0 mi ESE 6.9 mph - N/A   Clear
1:14 PM 80.6 °F - 48.2 °F 32% 30.13 in 10.0 mi SE 8.1 mph - N/A   Clear
1:34 PM 82.4 °F - 50.0 °F 32% 30.13 in 10.0 mi SSE 6.9 mph - N/A   Clear
1:54 PM 82.4 °F - 50.0 °F 32% 30.12 in 10.0 mi SSW 8.1 mph - N/A   Clear
2:14 PM 82.4 °F - 50.0 °F 32% 30.12 in 10.0 mi South 6.9 mph - N/A   Clear
2:34 PM 82.4 °F - 50.0 °F 32% 30.11 in 10.0 mi SSW 8.1 mph - N/A   Clear
2:54 PM 82.4 °F - 50.0 °F 32% 30.10 in 10.0 mi SSW 8.1 mph - N/A   Clear
3:14 PM 86.0 °F 84.2 °F 53.6 °F 33% 30.10 in 10.0 mi South 5.8 mph - N/A   Clear
3:34 PM 84.2 °F - 51.8 °F 33% 30.10 in 10.0 mi SSW 6.9 mph - N/A   Clear
3:54 PM 86.0 °F 84.2 °F 53.6 °F 33% 30.09 in 10.0 mi South 9.2 mph - N/A   Clear
4:14 PM 84.2 °F 82.8 °F 53.6 °F 35% 30.08 in 10.0 mi SSE 8.1 mph - N/A   Clear
4:34 PM 82.4 °F 81.4 °F 53.6 °F 37% 30.08 in 10.0 mi South 10.4 mph - N/A   Clear
4:54 PM 82.4 °F 81.4 °F 53.6 °F 37% 30.08 in 10.0 mi SSE 8.1 mph - N/A   Clear
5:14 PM 82.4 °F 81.4 °F 53.6 °F 37% 30.08 in 10.0 mi SSE 10.4 mph - N/A   Clear
5:34 PM 80.6 °F 80.3 °F 53.6 °F 39% 30.07 in 10.0 mi SSE 6.9 mph - N/A   Clear
5:54 PM 80.6 °F 80.3 °F 53.6 °F 39% 30.07 in 10.0 mi South 6.9 mph - N/A   Clear
6:14 PM 82.4 °F 81.7 °F 55.4 °F 39% 30.07 in 10.0 mi SSE 8.1 mph - N/A   Clear
6:34 PM 78.8 °F - 53.6 °F 42% 30.07 in 10.0 mi SSE 5.8 mph - N/A   Clear
6:54 PM 78.8 °F - 53.6 °F 42% 30.06 in 10.0 mi SSE 5.8 mph - N/A   Clear
7:14 PM 77.0 °F - 55.4 °F 47% 30.05 in 10.0 mi SE 3.5 mph - N/A   Clear
7:34 PM 77.0 °F - 55.4 °F 47% 30.05 in 10.0 mi SE 3.5 mph - N/A   Scattered Clouds
7:54 PM 75.2 °F - 57.2 °F 53% 30.05 in 10.0 mi SE 3.5 mph - N/A   Scattered Clouds
8:14 PM 75.2 °F - 59.0 °F 57% 30.05 in 10.0 mi SSE 4.6 mph - N/A   Scattered Clouds
8:34 PM 73.4 °F - 59.0 °F 61% 30.06 in 10.0 mi Calm Calm - N/A   Clear
8:54 PM 73.4 °F - 59.0 °F 61% 30.06 in 10.0 mi SSE 3.5 mph - N/A   Clear
9:15 PM 71.6 °F - 60.8 °F 69% 30.07 in 10.0 mi Calm Calm - N/A   Clear
9:34 PM 71.6 °F - 60.8 °F 69% 30.07 in 10.0 mi Calm Calm - N/A   Clear
9:54 PM 69.8 °F - 59.0 °F 68% 30.07 in 10.0 mi Calm Calm - N/A   Clear
10:14 PM 69.8 °F - 60.8 °F 73% 30.07 in 10.0 mi Calm Calm - N/A   Clear
10:34 PM 69.8 °F - 60.8 °F 73% 30.07 in 10.0 mi SE 3.5 mph - N/A   Clear
10:54 PM 69.8 °F - 60.8 °F 73% 30.07 in 10.0 mi SSE 3.5 mph - N/A   Clear
11:14 PM 69.8 °F - 60.8 °F 73% 30.07 in 10.0 mi SE 3.5 mph - N/A   Clear
11:34 PM 68.0 °F - 60.8 °F 78% 30.07 in 10.0 mi SE 3.5 mph - N/A   Clear
11:54 PM 68.0 °F - 60.8 °F 78% 30.07 in 10.0 mi Calm Calm - N/A   Clear